Wind_Speed
25 23 22 21 20 20 18 19 22 27 28 28 23 21 19 21 23 23 22 22 21 20 19 19 19 18 18 17 16 16 15 15 15 15 16 16 17 17 17 16 16 15 16 17 17 17 17 17 17
27 25 24 23 21 20 18 20 24 29 26 22 22 22 20 27 24 22 23 23 22 20 19 18 17 16 16 15 15 15 15 15 14 14 14 15 16 17 17 16 16 15 16 16 17 18 19 19 20
30 28 26 25 23 21 21 24 27 27 22 21 22 22 24 28 21 22 24 23 22 21 19 17 15 14 14 14 14 14 15 14 14 13 13 14 15 17 18 17 17 16 17 18 19 19 20 21 21
32 30 28 27 25 23 25 27 26 22 21 22 21 22 27 26 23 23 24 24 22 21 18 16 14 13 13 13 13 14 14 14 14 13 13 13 15 17 18 19 19 19 20 21 21 20 20 21 21
35 33 31 28 26 26 27 27 25 22 22 21 21 23 27 22 23 23 24 24 22 20 17 16 14 13 13 13 13 13 14 14 14 14 14 14 15 16 18 19 20 21 22 23 22 22 21 20 20
37 36 34 30 27 27 31 27 24 24 23 22 22 23 27 20 21 23 23 24 22 20 17 15 13 13 13 14 13 14 14 14 15 15 15 15 15 16 17 18 20 21 21 22 22 21 21 21 22
39 38 36 32 30 29 32 28 25 26 24 25 22 22 28 20 21 22 23 23 21 19 17 16 14 14 14 14 14 15 15 15 15 16 17 17 17 17 18 18 19 20 20 21 21 22 23 24 25
40 41 39 36 32 31 34 30 26 27 26 25 21 25 30 17 21 23 23 22 21 20 18 17 16 15 15 15 15 15 15 15 16 17 17 18 19 20 21 21 22 22 23 23 24 25 26 27 28
43 44 42 37 34 33 36 32 28 28 27 26 26 29 29 23 23 23 23 23 22 21 19 18 18 17 17 16 16 15 15 16 17 18 18 19 21 22 23 24 24 25 26 27 27 28 29 31 32
45 44 41 37 36 36 39 35 29 28 28 29 30 32 31 26 24 24 24 24 22 21 20 20 19 18 17 17 16 15 15 16 17 18 20 21 22 23 24 25 26 27 28 29 30 31 32 34 35
46 43 40 40 39 41 41 36 30 29 29 30 33 33 29 24 25 26 26 24 23 22 21 21 20 19 18 17 17 16 16 18 19 20 21 21 22 23 24 24 26 27 28 30 31 33 34 36 37
47 44 42 42 42 44 42 36 32 30 30 32 33 31 27 25 27 27 26 25 24 23 22 22 21 20 19 19 18 18 19 20 22 22 23 23 23 23 24 24 25 26 28 30 31 33 35 37 38
48 46 44 43 44 47 44 38 34 31 30 33 33 30 27 27 27 27 26 25 25 24 23 22 22 21 21 21 21 21 22 23 25 26 26 26 26 25 25 25 26 27 29 31 33 34 36 37 37
48 48 47 46 47 48 45 40 37 31 32 35 34 30 28 28 27 26 26 26 25 24 23 22 22 23 23 23 23 23 25 26 27 28 29 29 29 28 28 28 28 30 31 33 34 35 36 37 37
50 51 51 48 48 48 47 44 38 31 34 36 34 31 29 28 28 28 26 26 25 24 23 22 23 24 25 25 25 26 27 28 30 31 31 31 31 31 31 31 32 33 34 35 36 37 37 37 36
53 54 53 49 49 48 49 46 36 34 37 36 33 31 30 29 29 28 28 27 25 24 23 23 24 25 26 26 27 28 29 30 31 32 32 32 32 32 33 34 35 36 37 37 37 37 37 37 36
58 56 54 50 50 49 51 46 36 37 38 35 32 31 30 29 29 28 29 28 26 25 24 24 25 26 26 27 29 30 31 32 33 33 32 32 32 33 35 36 37 37 38 38 37 37 37 37 37
60 58 54 52 50 50 51 46 38 39 38 34 32 31 30 29 28 28 29 29 28 26 25 25 25 26 27 29 30 32 33 34 34 33 32 32 33 35 36 38 38 38 38 38 38 38 39 39 40
56 56 56 53 51 51 51 46 41 39 38 35 32 32 31 28 27 28 29 29 28 27 26 25 26 27 29 30 32 34 35 35 34 33 33 34 36 37 39 40 40 40 40 40 40 40 41 43 44
55 54 54 53 51 51 50 46 42 40 38 34 31 31 31 27 27 27 28 28 28 27 26 26 27 28 30 32 34 35 35 34 34 35 36 37 38 40 41 41 41 41 42 43 44 45 46 47 50
54 52 51 50 48 51 50 47 42 37 36 35 31 31 30 27 26 26 26 27 27 27 27 28 29 30 32 33 34 34 34 34 35 36 37 39 40 41 42 42 42 43 44 46 47 49 50 52 54
51 49 47 45 47 50 48 45 41 39 38 35 32 31 29 26 26 25 25 26 27 27 28 29 30 31 33 33 34 34 34 36 37 38 40 41 42 42 42 42 43 45 46 48 50 52 54 57 59
49 46 43 42 45 47 48 46 41 40 37 34 32 30 28 26 25 25 25 25 26 27 28 29 30 32 33 33 33 34 36 37 39 40 41 42 42 42 42 43 44 46 48 50 52 55 59 62 66
45 44 42 42 44 47 47 44 38 38 36 34 31 28 27 26 26 25 25 25 26 27 28 29 31 32 33 34 35 36 38 39 40 41 42 42 41 42 43 44 46 48 50 53 56 60 63 67 70
46 44 43 43 46 46 42 41 37 37 36 32 29 28 26 26 26 25 25 25 26 28 29 30 31 33 34 35 36 38 39 40 41 41 41 42 42 43 44 46 48 51 54 58 61 65 68 71 73
46 45 44 45 46 41 40 40 38 37 32 29 28 27 26 25 25 25 25 26 27 28 29 31 32 33 34 36 37 39 39 40 40 41 41 42 43 45 46 49 52 56 59 63 66 69 72 74 76
47 45 41 39 37 36 39 37 36 32 30 28 26 25 25 24 24 24 25 26 27 28 30 31 32 34 35 36 38 39 39 40 40 41 42 43 45 47 50 53 57 61 64 67 70 73 75 77 79
43 42 39 36 34 35 37 36 34 29 28 27 25 25 24 24 24 24 25 26 27 29 30 31 32 33 35 36 37 38 39 40 41 42 43 45 47 50 54 58 62 65 69 71 73 75 77 78 80
41 42 39 37 35 33 32 32 33 29 27 26 25 25 25 25 25 25 26 27 28 29 30 31 32 33 34 36 37 38 40 41 42 43 46 48 51 55 59 62 66 69 72 73 75 76 77 79 82
38 38 37 36 34 31 29 28 28 26 26 25 25 26 26 27 26 27 27 28 29 30 30 31 32 34 35 36 38 39 40 42 43 46 48 52 55 59 63 67 70 72 73 74 75 76 79 83 87
Wind_Direction
256 258 259 260 260 258 255 251 243 244 244 246 246 246 247 251 251 258 262 264 266 268 272 278 284 288 291 292 292 288 283 280 278 277 275 270 267 267 269 270 270 271 271 272 273 276 278 280 280
253 255 256 258 259 258 252 246 243 248 252 250 243 242 243 248 248 255 260 261 262 263 269 276 281 285 290 291 290 286 283 282 283 285 281 273 267 265 267 270 272 274 275 276 278 279 281 281 282
250 251 253 255 256 256 249 243 244 253 253 243 238 239 241 249 252 255 258 260 259 260 265 270 272 279 284 287 288 287 284 284 287 289 286 277 270 267 267 269 271 274 277 279 280 281 282 283 283
248 248 250 252 254 253 251 254 257 260 248 239 235 237 241 245 251 254 257 258 258 258 261 263 264 273 278 282 286 288 286 285 286 288 287 282 276 271 269 269 271 274 277 279 282 284 285 284 283
246 246 247 249 253 255 254 255 258 252 242 236 232 236 244 244 252 255 258 258 257 256 257 255 259 267 273 278 282 286 286 286 285 285 285 284 280 276 273 273 273 274 276 279 282 284 283 283 283
246 244 244 246 249 253 254 252 251 247 241 235 231 236 246 246 253 257 259 258 257 254 251 247 254 263 269 274 278 281 284 285 285 284 284 284 283 282 280 279 278 277 278 279 280 280 280 280 281
246 244 243 243 245 247 254 251 249 247 242 236 234 242 248 247 256 259 259 258 255 251 244 241 248 256 264 271 275 278 282 285 287 286 284 283 282 282 282 282 281 280 279 279 279 278 278 279 280
246 244 242 241 244 247 253 252 248 245 240 240 237 241 250 251 258 259 257 255 251 246 241 237 245 252 260 267 273 278 283 287 288 288 287 285 283 282 281 281 281 281 280 280 280 280 280 280 282
245 244 241 240 244 247 251 251 246 245 241 238 237 243 252 252 255 257 255 252 247 242 238 236 239 249 258 266 273 280 285 288 289 289 289 287 286 284 283 282 281 281 281 281 281 282 283 284 286
245 246 244 243 244 246 249 250 246 244 240 239 239 242 247 250 255 256 253 249 244 239 236 237 240 246 255 263 272 280 286 289 290 290 290 289 289 287 284 282 281 281 281 282 282 283 285 286 288
246 246 244 242 242 245 248 250 248 244 240 239 240 242 247 253 254 252 249 246 240 236 236 236 243 249 254 262 270 279 286 290 292 292 292 292 291 290 288 286 285 284 284 285 285 286 287 287 289
245 245 243 241 241 244 246 248 247 245 241 241 243 245 247 248 249 248 246 245 241 235 234 239 244 250 256 263 271 279 285 289 293 293 293 294 293 292 291 289 289 288 289 289 290 291 291 291 291
245 244 242 240 240 243 243 245 245 244 241 241 243 243 244 245 247 247 245 243 241 239 237 240 247 252 258 265 272 278 285 289 292 294 293 293 293 293 292 292 291 291 290 291 292 293 294 293 293
244 243 241 239 239 241 242 242 242 241 241 241 242 242 243 244 246 245 243 242 241 241 242 242 248 254 260 268 274 279 284 288 291 292 292 292 292 292 292 292 292 293 293 294 295 296 295 294 294
242 242 240 238 238 239 241 239 238 238 240 240 240 241 242 243 243 243 242 243 243 245 246 247 251 256 263 269 276 281 285 288 290 292 291 291 291 291 291 292 293 294 295 296 296 296 296 295 295
241 241 240 237 238 238 239 237 235 236 238 239 238 239 240 241 242 242 242 244 246 248 249 251 254 259 265 271 278 284 287 290 292 292 292 291 291 291 291 292 294 295 296 296 297 297 296 295 295
238 239 240 237 237 237 238 237 231 235 238 238 238 238 238 239 241 242 243 245 248 250 252 254 257 261 266 273 280 286 289 291 293 292 292 292 292 292 293 294 295 295 296 296 296 296 295 295 294
238 238 239 237 236 236 237 236 230 233 237 236 236 236 237 237 239 241 244 246 249 251 253 255 258 263 269 276 282 287 289 291 292 292 292 293 294 294 295 295 296 297 297 297 297 297 297 296 295
236 235 236 236 234 234 235 233 229 231 235 234 235 235 236 236 238 242 245 248 251 252 253 256 260 266 272 278 284 287 289 290 291 291 292 294 295 296 297 298 299 300 300 300 300 299 299 299 298
227 228 231 232 231 232 232 230 227 228 233 234 234 234 235 234 238 242 246 249 250 252 254 258 263 269 275 281 285 287 288 288 289 291 292 295 296 298 299 300 301 302 302 302 303 302 302 301 300
217 217 224 227 227 229 230 227 226 227 231 232 231 233 234 234 238 243 247 249 250 252 255 260 266 272 278 282 285 286 286 287 289 290 293 295 297 298 299 300 302 303 303 303 303 303 302 301 300
208 208 213 220 223 226 227 226 224 226 228 229 229 231 232 234 238 243 247 250 251 253 257 263 269 274 279 282 284 285 286 287 289 291 293 295 297 298 300 301 302 303 303 303 302 301 300 299 299
199 200 206 212 220 224 224 223 220 226 226 228 229 230 232 235 239 244 248 250 252 255 260 265 271 276 280 282 283 284 286 288 290 292 294 295 297 299 300 301 302 302 301 301 300 299 299 299 299
191 195 201 210 216 221 220 221 220 228 227 226 229 231 234 236 240 245 249 252 255 258 263 267 272 276 279 281 282 284 286 289 291 293 295 297 299 300 300 300 300 300 300 299 299 299 300 300 300
188 190 197 206 213 218 217 221 219 226 227 226 229 232 236 239 242 247 251 255 259 262 266 270 273 276 279 281 284 286 288 290 292 295 297 298 299 299 300 299 299 299 299 300 300 301 301 301 301
187 191 199 205 213 213 215 220 220 224 228 229 230 234 238 242 245 250 254 258 262 265 268 271 274 277 280 282 285 287 289 291 293 296 297 298 299 299 299 299 299 300 300 301 302 302 303 303 303
188 193 198 207 214 213 217 220 223 223 226 230 233 237 241 245 249 253 257 260 264 267 270 273 276 278 281 283 285 287 289 292 295 297 298 298 298 298 299 299 301 302 303 303 304 304 304 304 305
188 191 197 204 206 210 215 219 224 224 227 232 236 241 245 249 254 257 260 263 266 269 272 275 277 280 282 284 286 288 291 294 296 297 297 297 298 299 300 302 303 304 305 306 306 306 307 307 307
188 190 196 201 203 206 213 218 221 223 228 234 239 243 247 251 256 260 263 266 268 271 274 277 280 282 283 285 288 290 293 295 296 297 297 298 300 301 303 305 306 307 308 308 309 309 309 310 310
188 191 196 200 201 205 211 220 222 224 230 235 240 244 248 252 257 262 266 268 272 275 277 279 282 283 285 288 290 293 295 296 297 297 299 301 303 304 306 308 309 310 310 311 311 311 312 312 311
Height
5820 5822 5823 5825 5827 5829 5831 5832 5831 5830 5832 5834 5838 5841 5843 5843 5843 5846 5845 5844 5845 5846 5846 5847 5847 5847 5847 5847 5847 5847 5846 5846 5846 5846 5846 5847 5848 5848 5849 5850 5850 5850 5850 5851 5851 5850 5850 5849 5849
5816 5818 5820 5821 5823 5824 5827 5827 5827 5827 5829 5833 5835 5837 5839 5836 5839 5841 5840 5841 5842 5843 5844 5844 5845 5845 5845 5845 5845 5845 5844 5844 5844 5844 5844 5844 5845 5846 5846 5847 5847 5847 5848 5848 5848 5847 5847 5846 5846
5810 5813 5816 5817 5819 5820 5821 5821 5822 5823 5828 5830 5832 5834 5834 5832 5837 5837 5837 5838 5839 5840 5841 5841 5842 5842 5843 5843 5843 5842 5842 5842 5842 5842 5842 5842 5842 5843 5844 5844 5844 5844 5845 5845 5844 5844 5843 5842 5842
5805 5808 5811 5813 5815 5816 5817 5817 5819 5822 5824 5826 5828 5830 5829 5830 5832 5833 5833 5834 5835 5837 5838 5839 5839 5840 5840 5840 5840 5840 5840 5840 5839 5839 5839 5839 5839 5840 5841 5841 5841 5841 5841 5841 5840 5840 5839 5838 5838
5798 5802 5806 5808 5810 5811 5812 5814 5816 5819 5820 5822 5825 5826 5824 5828 5829 5830 5830 5831 5832 5834 5835 5836 5837 5837 5838 5838 5838 5837 5837 5837 5837 5837 5837 5836 5837 5837 5837 5837 5837 5838 5838 5837 5837 5836 5835 5834 5833
5793 5796 5800 5803 5805 5806 5806 5809 5813 5814 5816 5819 5821 5822 5820 5826 5826 5827 5827 5827 5829 5831 5832 5833 5834 5835 5835 5835 5835 5834 5834 5834 5834 5834 5834 5833 5834 5834 5834 5833 5833 5833 5833 5833 5832 5831 5830 5829 5828
5787 5790 5793 5797 5800 5801 5801 5805 5808 5810 5813 5815 5818 5819 5816 5822 5822 5823 5823 5824 5825 5827 5829 5830 5831 5832 5832 5832 5832 5832 5831 5831 5831 5831 5830 5830 5830 5830 5829 5829 5829 5828 5828 5827 5827 5826 5825 5823 5822
5779 5783 5786 5791 5794 5797 5797 5800 5804 5806 5809 5812 5816 5815 5812 5820 5819 5819 5819 5820 5822 5823 5825 5826 5827 5828 5828 5829 5829 5829 5829 5828 5828 5828 5827 5826 5826 5825 5824 5824 5823 5823 5823 5822 5821 5820 5819 5818 5817
5771 5775 5779 5786 5790 5792 5791 5794 5799 5802 5805 5808 5810 5810 5810 5814 5814 5815 5815 5816 5818 5819 5821 5822 5824 5824 5825 5825 5826 5826 5825 5825 5825 5824 5823 5822 5821 5820 5819 5819 5818 5818 5817 5816 5815 5814 5813 5812 5811
5763 5767 5775 5781 5784 5785 5785 5788 5794 5798 5801 5803 5805 5805 5805 5808 5810 5811 5811 5812 5814 5816 5817 5818 5819 5820 5821 5822 5823 5822 5822 5822 5821 5820 5819 5817 5816 5815 5815 5814 5813 5812 5811 5811 5810 5809 5807 5806 5804
5755 5761 5768 5773 5776 5777 5779 5783 5789 5793 5796 5798 5799 5799 5802 5805 5806 5806 5807 5808 5810 5812 5813 5814 5816 5817 5818 5819 5819 5819 5819 5818 5817 5816 5815 5813 5812 5811 5810 5808 5807 5807 5806 5805 5804 5802 5801 5799 5797
5747 5753 5759 5765 5768 5769 5773 5778 5783 5787 5791 5792 5793 5796 5799 5800 5801 5802 5803 5804 5806 5808 5810 5811 5812 5813 5814 5815 5815 5815 5815 5814 5813 5811 5810 5809 5808 5806 5805 5804 5803 5802 5800 5799 5797 5795 5793 5791 5789
5738 5745 5750 5756 5760 5762 5766 5772 5777 5781 5785 5786 5788 5791 5794 5795 5796 5797 5799 5801 5802 5804 5806 5807 5808 5809 5810 5811 5811 5811 5811 5810 5809 5807 5805 5804 5803 5801 5800 5799 5797 5796 5794 5793 5791 5789 5786 5784 5781
5730 5734 5740 5746 5751 5754 5760 5766 5770 5776 5779 5780 5783 5787 5789 5790 5792 5793 5795 5797 5798 5800 5802 5804 5805 5805 5806 5806 5807 5807 5806 5805 5804 5803 5801 5799 5798 5796 5795 5793 5791 5790 5788 5786 5784 5781 5779 5776 5773
5719 5723 5729 5737 5743 5747 5752 5757 5765 5771 5772 5774 5778 5782 5784 5785 5787 5789 5791 5793 5794 5796 5798 5800 5801 5801 5802 5802 5803 5802 5801 5801 5799 5797 5795 5794 5792 5790 5788 5787 5785 5783 5780 5778 5776 5773 5770 5768 5765
5708 5712 5718 5730 5735 5740 5745 5750 5761 5764 5764 5769 5773 5776 5778 5781 5782 5785 5787 5788 5790 5792 5794 5795 5796 5797 5797 5798 5798 5797 5796 5795 5794 5792 5790 5788 5786 5784 5782 5780 5778 5775 5773 5770 5767 5765 5762 5759 5757
5695 5701 5710 5721 5727 5733 5736 5744 5755 5756 5758 5764 5768 5771 5773 5776 5778 5780 5782 5784 5786 5788 5790 5791 5792 5792 5793 5793 5793 5792 5791 5790 5788 5786 5784 5782 5780 5777 5775 5773 5770 5767 5765 5762 5759 5756 5753 5750 5748
5686 5694 5702 5711 5720 5725 5729 5738 5748 5750 5753 5758 5762 5765 5768 5771 5774 5776 5777 5780 5782 5784 5786 5787 5787 5788 5788 5788 5788 5787 5785 5784 5782 5780 5777 5775 5773 5771 5768 5765 5762 5759 5756 5753 5750 5747 5743 5740 5737
5674 5683 5691 5701 5711 5717 5722 5731 5740 5743 5747 5753 5757 5760 5763 5766 5769 5770 5773 5775 5778 5780 5781 5782 5783 5783 5784 5783 5782 5781 5779 5778 5776 5773 5771 5769 5766 5763 5761 5758 5754 5751 5747 5744 5741 5737 5734 5729 5726
5659 5671 5682 5693 5702 5709 5715 5724 5732 5737 5742 5747 5752 5755 5757 5761 5764 5766 5768 5771 5773 5775 5776 5777 5778 5778 5778 5777 5776 5775 5773 5771 5769 5767 5764 5762 5759 5756 5753 5749 5746 5742 5738 5734 5730 5727 5723 5719 5714
5648 5663 5677 5687 5696 5701 5708 5717 5726 5732 5737 5741 5746 5749 5752 5756 5759 5761 5764 5766 5768 5770 5771 5772 5773 5772 5772 5771 5770 5768 5766 5765 5763 5760 5757 5755 5752 5748 5745 5741 5737 5733 5729 5724 5720 5716 5711 5707 5702
5640 5658 5671 5681 5688 5694 5703 5711 5720 5725 5729 5735 5740 5743 5747 5751 5754 5756 5759 5761 5763 5765 5766 5766 5767 5766 5766 5764 5763 5761 5760 5758 5756 5753 5750 5747 5744 5740 5736 5733 5728 5724 5719 5715 5710 5705 5700 5695 5690
5637 5654 5666 5675 5682 5689 5696 5704 5714 5717 5723 5729 5734 5738 5742 5746 5749 5751 5754 5756 5758 5759 5760 5760 5760 5760 5759 5758 5756 5754 5753 5750 5748 5745 5742 5739 5736 5732 5728 5724 5719 5715 5710 5705 5700 5694 5688 5681 5675
5635 5649 5659 5666 5674 5681 5690 5700 5710 5712 5718 5724 5729 5733 5737 5741 5744 5746 5749 5751 5753 5754 5754 5754 5754 5753 5752 5751 5749 5747 5745 5743 5740 5737 5734 5731 5727 5723 5719 5715 5710 5705 5700 5694 5688 5682 5675 5668 5660
5628 5641 5651 5658 5665 5675 5688 5695 5704 5705 5711 5719 5725 5728 5732 5736 5739 5741 5744 5746 5747 5748 5748 5748 5747 5746 5745 5744 5742 5740 5737 5735 5732 5729 5726 5722 5718 5714 5710 5705 5700 5694 5689 5682 5675 5668 5660 5652 5644
5626 5637 5647 5655 5663 5676 5684 5689 5698 5702 5709 5715 5720 5724 5727 5731 5733 5736 5738 5740 5741 5741 5741 5741 5741 5740 5738 5737 5735 5732 5730 5727 5724 5721 5717 5713 5709 5704 5700 5694 5689 5682 5676 5669 5661 5653 5644 5635 5626
5625 5634 5645 5655 5665 5675 5680 5687 5693 5700 5705 5710 5715 5719 5722 5726 5728 5731 5733 5734 5734 5735 5735 5735 5734 5733 5731 5730 5727 5725 5722 5719 5716 5712 5708 5704 5699 5694 5689 5683 5676 5669 5662 5654 5646 5637 5628 5618 5608
5624 5634 5644 5654 5662 5669 5676 5683 5690 5697 5701 5706 5711 5714 5718 5721 5723 5725 5727 5728 5728 5728 5728 5728 5727 5726 5724 5722 5720 5717 5714 5711 5707 5703 5699 5694 5689 5684 5677 5670 5663 5655 5647 5638 5629 5620 5610 5600 5590
5624 5633 5643 5651 5660 5668 5674 5681 5685 5693 5698 5702 5706 5710 5713 5716 5718 5719 5721 5721 5722 5722 5722 5721 5720 5719 5717 5715 5712 5709 5706 5702 5698 5694 5689 5684 5678 5672 5665 5657 5649 5640 5631 5622 5613 5603 5593 5582 5571
5624 5633 5642 5651 5659 5666 5671 5679 5682 5689 5694 5698 5701 5705 5708 5710 5712 5714 5715 5715 5715 5715 5715 5714 5713 5711 5709 5707 5704 5701 5697 5693 5689 5684 5679 5673 5666 5659 5651 5642 5633 5624 5615 5606 5596 5586 5575 5563 5551